Location: Bacea
(45.9500°N, 22.6667°E)
Time: 00:26:16
(UTC+00:00)

SKYMED 2 - Pass Details

Date: 16 October 2021
Orbit: 621 x 623 km, 97.9° (Epoch: 02 December)

Event Time Altitude Azimuth Distance (km) Brightness Sun altitude
Rises 16:13:07 0° 18° (NNE) 2,916 6.8 -6.3°
Reaches altitude 10° 16:15:24 10° 25° (NNE) 2,004 5.9 -6.7°
Maximum altitude 16:19:35 45° 99° (E) 851 3.9 -7.4°
Drops below altitude 10° 16:23:44 10° 172° (S) 1,987 6.1 -8.1°
Sets 16:26:00 0° 179° (S) 2,888 7.0 -8.5°
